Temp
78 75 71 72 73 71 71 67 66 66 65 64 66 66 65 65 64 63 63 66 65 65 65 64 63 64 66 67 68 68 68 67 62 66 69 69 66 64 63 65 62 59 58
81 77 74 69 71 71 67 66 65 66 67 65 66 66 66 66 66 66 66 65 64 63 64 64 63 66 62 64 66 63 65 65 63 59 64 67 65 65 62 60 57 59 56
80 73 73 66 68 66 64 64 66 67 67 70 69 67 67 66 66 66 65 65 64 64 63 62 62 61 60 62 63 64 65 65 66 64 64 68 66 65 59 55 53 55 56
79 76 72 67 66 65 65 66 68 70 69 71 70 70 68 68 68 67 66 64 64 63 62 62 61 59 58 58 62 61 62 62 64 64 64 64 63 59 51 47 47 51 50
78 77 72 62 62 63 63 63 66 70 69 69 65 65 67 66 69 66 65 64 63 62 62 64 59 57 54 53 58 57 58 60 62 61 61 60 56 50 43 45 45 47 49
78 74 67 63 60 60 61 62 60 61 63 61 60 63 59 63 49 53 61 63 63 61 61 61 62 57 57 53 52 51 51 54 55 57 58 50 49 46 44 44 45 43 42
76 65 65 62 58 58 58 57 55 54 53 51 52 52 53 55 48 49 54 62 60 59 57 57 60 60 54 59 58 56 53 50 52 55 51 50 46 44 42 43 45 45 45
64 63 60 60 56 56 56 54 53 52 50 50 52 54 51 51 47 48 51 59 55 53 53 56 57 55 49 51 60 60 62 61 58 59 55 52 48 46 44 45 46 48 53
58 57 58 57 54 54 54 54 51 49 50 52 50 50 50 52 45 46 54 55 53 55 54 52 54 53 40 41 58 58 59 59 57 51 49 47 44 44 45 48 47 46 44
57 56 56 56 55 55 54 52 49 52 51 53 53 54 52 53 42 44 52 58 56 56 56 55 41 44 40 40 55 55 54 54 59 57 55 53 49 49 48 50 47 43 43
56 55 55 55 54 53 51 50 48 49 50 50 53 53 53 51 47 41 43 57 60 60 60 57 55 41 40 41 41 52 50 49 57 54 55 52 49 48 48 52 49 47 43
55 54 52 52 52 52 51 48 51 49 49 49 52 52 51 50 45 41 41 43 51 58 56 57 53 41 41 41 48 41 42 49 61 53 50 46 45 45 47 48 49 51 51
51 50 50 50 52 53 57 51 52 53 58 57 55 54 52 53 51 41 41 44 44 54 56 47 43 42 42 47 44 44 50 58 54 51 45 45 45 46 47 46 49 57 60
48 48 48 48 49 53 55 60 61 60 58 57 55 53 55 56 56 57 59 58 47 56 51 57 52 48 45 50 58 57 57 53 50 47 45 46 46 46 44 45 47 54 55
47 47 47 48 52 54 52 53 54 57 56 57 55 56 53 49 43 40 47 55 57 49 50 61 60 60 59 59 58 56 54 52 48 46 45 45 44 45 46 48 52 54 55
46 46 44 49 51 48 46 47 39 40 40 40 42 47 45 39 38 38 39 39 39 39 57 58 58 58 57 56 53 51 50 46 45 45 46 45 44 44 45 55 56 54 53
46 46 50 52 55 52 50 45 40 40 38 37 37 36 37 37 38 38 40 40 41 48 58 58 57 56 56 51 48 45 42 42 45 44 43 43 44 44 45 52 56 55 54
49 49 56 55 52 53 53 51 51 50 46 45 39 41 38 38 38 39 40 42 57 56 58 57 57 57 53 47 45 43 42 41 42 43 43 44 44 44 43 46 53 52 55
50 51 51 51 52 51 52 53 53 51 48 47 48 45 44 40 41 42 46 59 57 57 58 57 58 58 55 48 44 42 42 40 41 44 48 49 48 47 46 47 56 47 49
45 44 48 52 53 55 54 52 54 54 53 54 54 54 56 54 56 56 57 58 57 57 58 57 58 58 58 50 46 46 51 53 54 56 56 58 60 59 57 55 56 55 57
48 51 48 54 55 54 55 56 56 56 56 55 53 49 34 57 56 56 55 56 56 56 57 58 58 58 59 57 55 56 55 56 55 56 56 57 59 59 60 60 59 59 60
55 55 55 55 58 57 56 57 56 55 54 53 53 51 37 58 56 56 55 56 57 57 58 58 58 58 58 58 58 57 56 55 55 56 57 59 59 61 60 59 60 59 59
58 58 58 57 56 52 57 58 57 56 55 56 57 57 57 56 56 55 55 56 56 56 58 58 58 57 58 58 58 56 53 53 56 58 57 58 59 59 60 59 59 59 59
60 57 57 58 58 58 58 57 57 52 58 58 57 56 56 56 55 55 56 56 56 56 57 57 56 56 55 56 56 56 52 48 56 59 59 58 58 57 59 59 59 58 58
61 60 59 58 58 57 56 57 58 58 58 57 56 56 56 56 56 56 56 57 56 56 55 56 57 56 54 52 51 51 39 34 47 38 60 58 57 58 58 59 59 58 58
60 60 59 59 58 59 58 57 57 58 57 57 57 57 57 56 56 56 56 56 56 56 55 56 55 54 53 51 47 36 34 35 43 35 58 58 57 55 58 57 57 58 57
MSLP
1001.84 1002.23 1002.89 1002.92 1003.66 1004.49 1005.70 1007.56 1008.45 1010.25 1011.04 1011.78 1012.82 1013.38 1014.37 1014.92 1015.79 1016.08 1016.23 1016.54 1016.74 1017.22 1017.49 1017.46 1017.45 1017.27 1016.71 1016.67 1016.24 1015.82 1015.29 1015.27 1014.30 1013.25 1013.09 1012.66 1012.15 1011.83 1011.64 1011.24 1010.76 1010.62 1010.06
1001.00 1001.76 1002.67 1002.98 1003.39 1004.73 1005.94 1007.25 1008.79 1010.49 1011.77 1012.05 1013.04 1013.78 1014.58 1015.04 1015.56 1015.67 1016.33 1017.05 1017.52 1017.67 1017.80 1017.81 1017.77 1017.58 1017.31 1017.27 1016.66 1016.51 1015.83 1015.65 1015.10 1013.87 1013.13 1012.39 1012.30 1012.16 1012.22 1011.61 1011.42 1010.94 1010.25
1000.99 1001.81 1003.13 1003.58 1000.42 1003.66 1004.95 1007.45 1009.51 1010.38 1011.38 1012.70 1013.42 1014.02 1014.86 1015.14 1015.39 1016.13 1017.00 1017.41 1018.00 1018.21 1018.16 1018.24 1018.32 1018.08 1017.98 1017.85 1017.34 1016.75 1016.20 1015.76 1014.92 1014.22 1013.10 1012.70 1012.71 1012.53 1012.38 1012.03 1011.94 1011.04 1010.23
1001.09 1001.84 1003.12 1002.81 1003.94 1004.55 1005.46 1008.01 1008.66 1009.60 1011.33 1012.33 1013.63 1013.76 1014.95 1015.44 1015.72 1016.46 1017.30 1017.75 1018.16 1018.43 1018.69 1018.83 1018.83 1019.00 1018.82 1018.45 1017.54 1017.32 1016.87 1016.22 1015.39 1014.72 1013.90 1013.23 1013.02 1013.42 1013.81 1013.07 1011.90 1011.22 1010.47
1001.03 1001.89 1003.28 1004.60 1004.97 1005.46 1006.70 1007.98 1008.65 1009.85 1011.19 1012.96 1013.46 1014.25 1015.41 1015.92 1016.52 1017.12 1017.76 1018.20 1018.47 1018.67 1018.87 1018.96 1019.59 1019.67 1019.40 1019.36 1018.65 1018.23 1017.73 1016.85 1016.19 1015.63 1014.57 1014.19 1014.51 1014.58 1014.54 1013.99 1012.86 1011.73 1010.75
1000.95 1002.29 1003.95 1004.76 1005.17 1006.83 1007.49 1008.38 1009.92 1011.37 1011.60 1012.88 1013.63 1014.68 1015.86 1017.15 1018.22 1018.27 1018.56 1018.49 1018.94 1019.19 1019.32 1019.67 1019.61 1019.93 1019.40 1019.28 1019.24 1018.89 1018.64 1018.19 1017.46 1017.07 1016.04 1016.14 1016.25 1016.22 1015.49 1014.76 1013.56 1012.25 1011.18
1000.96 1003.34 1004.51 1005.78 1005.91 1006.57 1008.55 1009.73 1011.03 1011.70 1012.54 1013.73 1015.20 1016.49 1016.83 1018.27 1018.83 1019.28 1019.27 1018.95 1019.96 1020.10 1020.30 1020.24 1020.11 1020.18 1020.23 1019.53 1018.84 1018.50 1018.52 1018.66 1018.45 1018.24 1017.52 1017.33 1017.20 1017.02 1016.35 1015.06 1013.78 1012.84 1012.11
1002.28 1003.76 1004.93 1006.50 1006.00 1008.53 1009.72 1010.96 1011.87 1012.72 1013.64 1015.07 1016.12 1017.08 1018.54 1019.47 1019.41 1019.94 1020.29 1020.18 1020.86 1021.09 1021.06 1021.26 1021.05 1020.97 1021.44 1020.64 1019.47 1018.92 1018.08 1018.05 1018.50 1018.05 1018.02 1017.79 1018.01 1017.73 1016.86 1015.50 1014.48 1013.31 1012.03
1002.76 1004.16 1005.51 1006.23 1007.74 1009.11 1010.80 1011.94 1012.83 1013.74 1014.86 1015.93 1017.24 1018.28 1019.42 1019.71 1020.10 1020.51 1020.74 1021.21 1021.37 1021.28 1021.72 1022.14 1021.84 1021.91 1022.08 1021.67 1020.16 1019.43 1018.65 1018.67 1017.97 1018.01 1018.16 1018.29 1018.17 1017.84 1017.00 1015.55 1014.60 1013.64 1012.76
1003.25 1004.70 1006.06 1006.97 1008.51 1010.44 1011.39 1012.57 1013.76 1014.87 1015.98 1016.82 1018.04 1019.04 1020.16 1020.55 1021.38 1021.34 1021.43 1021.20 1021.33 1021.17 1021.44 1021.99 1023.15 1022.93 1022.99 1022.37 1021.35 1020.70 1019.91 1019.54 1018.31 1017.70 1017.98 1017.95 1018.14 1017.91 1017.22 1016.17 1015.71 1014.82 1013.99
1004.31 1005.73 1007.13 1007.96 1009.94 1011.11 1012.32 1013.40 1014.37 1015.94 1016.95 1018.09 1018.61 1020.27 1020.66 1021.86 1022.38 1022.14 1022.23 1021.92 1021.35 1020.87 1021.21 1021.95 1022.80 1023.61 1023.36 1022.57 1022.52 1021.96 1021.09 1020.05 1018.36 1018.60 1018.71 1018.73 1018.68 1018.16 1017.73 1016.85 1016.40 1015.90 1015.40
1005.14 1006.76 1008.01 1009.72 1011.09 1012.20 1012.47 1013.88 1015.53 1016.78 1017.46 1018.66 1019.39 1020.65 1021.51 1022.47 1022.51 1023.64 1023.25 1022.93 1022.05 1021.62 1022.18 1022.94 1023.59 1023.72 1023.28 1023.25 1022.54 1022.20 1020.49 1019.35 1018.55 1019.45 1019.56 1019.54 1019.39 1018.94 1018.25 1017.61 1017.01 1016.32 1015.87
1006.30 1008.18 1009.50 1010.91 1012.67 1013.07 1012.93 1014.38 1016.02 1016.93 1017.64 1018.59 1019.66 1020.62 1021.61 1022.67 1023.46 1023.94 1023.79 1023.33 1023.06 1022.76 1023.50 1024.21 1024.19 1023.75 1023.30 1022.85 1022.44 1021.54 1020.61 1020.55 1020.26 1020.33 1020.33 1020.17 1020.05 1019.50 1018.66 1017.86 1017.47 1016.01 1014.98
1007.39 1009.54 1010.91 1011.76 1013.21 1013.87 1014.70 1015.32 1016.12 1017.38 1018.36 1019.45 1020.21 1020.76 1021.82 1022.47 1023.10 1023.18 1023.09 1023.34 1023.55 1023.45 1023.86 1023.42 1023.42 1023.46 1023.12 1022.40 1021.46 1021.48 1021.83 1021.96 1021.79 1021.70 1021.23 1021.14 1020.52 1019.67 1019.00 1018.58 1018.07 1016.61 1015.70
1008.62 1010.10 1011.85 1012.80 1013.57 1014.78 1016.12 1017.18 1018.02 1019.16 1019.99 1020.29 1020.47 1021.51 1022.76 1023.86 1025.21 1025.04 1024.52 1024.46 1024.80 1025.34 1024.88 1023.40 1023.24 1023.11 1022.87 1021.92 1022.26 1022.76 1022.71 1022.66 1022.82 1022.60 1022.15 1021.61 1021.05 1020.29 1019.58 1019.07 1018.26 1017.02 1016.07
1009.43 1011.03 1012.58 1013.77 1015.16 1016.23 1017.63 1019.26 1021.30 1022.00 1022.33 1022.11 1022.54 1023.28 1024.67 1025.66 1026.02 1025.61 1025.67 1025.91 1026.15 1026.12 1024.83 1023.94 1023.93 1023.64 1022.83 1023.10 1023.78 1023.69 1023.87 1023.76 1023.71 1023.40 1022.93 1022.25 1021.63 1021.02 1020.42 1019.26 1018.43 1017.63 1016.98
1010.31 1011.69 1013.57 1014.49 1015.71 1016.86 1018.29 1019.89 1022.38 1023.79 1023.73 1024.61 1025.10 1025.64 1025.96 1026.37 1026.28 1026.12 1026.72 1026.58 1026.12 1025.39 1024.94 1024.87 1024.52 1024.07 1024.30 1024.90 1025.13 1025.17 1025.07 1025.25 1024.66 1024.13 1023.59 1022.86 1022.19 1021.66 1021.25 1020.08 1018.97 1018.11 1017.50
1011.23 1012.63 1013.80 1015.23 1016.30 1017.47 1018.76 1020.76 1021.20 1022.10 1023.88 1025.45 1026.61 1026.74 1026.85 1026.43 1026.85 1027.51 1027.48 1027.43 1026.09 1025.69 1025.47 1025.25 1025.14 1025.24 1025.75 1026.28 1026.15 1026.00 1025.95 1025.72 1025.39 1024.83 1023.95 1023.28 1022.80 1022.33 1021.66 1021.02 1019.97 1019.01 1018.09
1012.29 1013.90 1015.01 1016.15 1017.21 1018.42 1019.74 1020.10 1021.30 1022.59 1023.94 1025.40 1026.72 1026.84 1026.92 1027.50 1027.43 1027.40 1026.79 1026.55 1026.30 1025.93 1026.06 1026.00 1026.04 1026.08 1026.15 1026.84 1027.07 1026.93 1026.72 1026.25 1025.91 1024.79 1023.68 1022.97 1022.67 1022.34 1021.62 1021.14 1020.20 1019.39 1018.61
1014.18 1015.04 1015.64 1016.98 1018.46 1019.10 1019.93 1020.89 1021.78 1022.79 1023.98 1025.00 1025.69 1026.38 1026.96 1027.55 1027.64 1027.55 1027.38 1027.21 1026.87 1026.93 1026.90 1027.11 1027.13 1026.80 1026.60 1027.12 1027.16 1026.95 1026.34 1025.71 1025.03 1024.17 1023.32 1022.62 1021.93 1021.54 1021.15 1020.99 1020.48 1019.86 1019.13
1015.20 1016.03 1017.10 1017.94 1019.03 1019.69 1020.26 1021.16 1022.51 1023.34 1024.26 1025.15 1026.17 1027.40 1027.80 1027.72 1027.83 1028.03 1027.91 1028.10 1028.05 1028.00 1028.09 1027.83 1027.80 1027.69 1027.30 1027.07 1026.95 1026.72 1026.56 1026.03 1025.60 1024.79 1023.93 1023.29 1022.63 1022.09 1021.75 1021.27 1020.86 1020.35 1019.87
1015.50 1016.57 1017.84 1018.45 1019.02 1020.13 1021.27 1022.07 1023.51 1024.18 1025.06 1026.26 1027.57 1028.40 1028.32 1028.16 1028.40 1028.37 1028.82 1028.57 1028.60 1028.96 1028.76 1028.81 1028.79 1028.71 1028.39 1027.84 1027.54 1027.38 1027.20 1026.72 1026.23 1025.51 1024.75 1024.02 1023.52 1022.85 1022.46 1022.04 1021.53 1021.25 1020.91
1016.55 1017.12 1017.91 1019.08 1020.49 1021.30 1021.83 1023.45 1024.09 1024.98 1025.96 1026.95 1027.51 1028.12 1028.39 1028.90 1029.15 1029.49 1029.48 1029.50 1029.58 1029.62 1029.79 1029.91 1029.74 1029.60 1029.29 1029.13 1028.80 1028.74 1028.54 1028.00 1027.02 1026.31 1025.54 1024.91 1024.40 1023.75 1023.30 1022.88 1022.57 1022.08 1021.66
1016.81 1018.27 1019.21 1020.00 1020.76 1022.13 1023.17 1023.83 1024.95 1025.78 1026.42 1027.35 1028.08 1028.64 1029.04 1029.62 1030.11 1029.83 1029.95 1030.10 1030.18 1030.48 1030.65 1030.70 1030.88 1030.95 1030.61 1030.27 1030.11 1029.90 1029.98 1029.71 1028.23 1027.12 1026.41 1025.94 1025.34 1024.78 1024.26 1023.81 1023.44 1023.21 1022.76
1018.10 1018.80 1019.96 1021.16 1022.12 1023.18 1024.06 1024.83 1025.56 1026.42 1027.36 1027.98 1028.61 1029.00 1029.63 1030.02 1030.16 1030.45 1030.72 1030.82 1030.77 1031.08 1031.46 1031.60 1031.78 1031.73 1031.77 1031.87 1031.68 1031.26 1031.11 1030.46 1029.44 1028.73 1027.23 1026.83 1026.49 1025.83 1025.46 1024.98 1024.51 1024.22 1023.91
1019.26 1020.02 1021.10 1022.21 1023.07 1023.97 1024.61 1025.35 1026.29 1027.04 1027.89 1028.47 1029.04 1029.71 1029.97 1030.00 1030.60 1030.86 1030.91 1031.53 1031.48 1031.69 1032.13 1032.43 1032.67 1032.71 1032.63 1032.76 1032.88 1032.49 1031.79 1031.03 1030.18 1029.40 1028.19 1027.77 1027.38 1027.16 1026.65 1026.27 1025.80 1025.28 1025.03
Wind_Speed
13 14 15 16 16 17 16 15 16 15 14 14 15 15 15 14 10 11 12 11 10 7 6 6 6 6 6 7 7 7 7 9 11 12 12 13 13 14 13 17 14 14 12
11 12 16 14 19 18 16 17 17 17 15 16 15 15 15 14 13 13 12 10 8 7 6 7 8 7 9 7 7 8 8 9 10 14 13 12 14 14 19 19 14 13 13
11 10 13 8 9 22 19 17 18 18 19 18 17 16 15 14 15 13 12 11 8 8 8 9 9 10 9 9 9 9 9 9 9 10 12 11 13 14 17 16 14 17 12
11 13 14 9 12 10 24 21 21 21 21 19 17 17 15 14 14 13 11 10 9 9 8 10 11 10 11 11 9 10 10 10 10 10 11 12 12 15 11 12 13 11 10
12 14 12 13 12 19 18 19 19 21 21 20 17 15 16 11 10 12 11 10 9 9 9 8 11 11 11 9 8 10 11 11 11 12 11 12 14 13 14 11 12 11 7
14 16 17 18 16 12 19 19 19 18 21 18 16 16 15 12 13 12 9 10 10 9 9 8 8 13 11 4 4 3 5 10 12 11 12 13 15 12 11 11 10 10 7
15 17 17 19 21 14 18 19 19 20 19 18 17 14 17 14 12 11 8 11 10 10 10 9 8 10 14 12 8 5 5 6 5 12 12 11 11 12 11 13 13 11 7
14 17 18 19 23 12 19 19 18 17 18 16 15 17 13 11 14 11 11 12 10 10 11 10 10 12 14 13 12 11 10 10 10 9 8 9 8 10 10 10 11 12 6
17 18 16 19 23 19 20 19 17 18 16 16 14 15 12 13 11 9 9 9 9 10 11 13 12 12 18 21 11 12 12 11 2 8 7 5 7 13 15 8 11 11 9
19 19 18 20 22 20 20 19 18 15 16 13 16 15 15 15 12 11 6 7 7 7 8 10 18 15 15 15 13 13 11 11 11 11 11 11 12 13 16 13 10 10 11
20 20 19 19 20 19 20 17 19 17 16 15 17 15 16 13 14 17 12 7 6 7 8 9 10 13 12 16 13 11 11 12 8 11 10 11 10 10 9 11 10 9 10
22 21 21 20 15 16 23 19 18 17 17 15 16 14 12 12 15 13 14 13 8 11 10 10 9 11 9 8 9 12 14 12 9 9 9 9 8 8 9 9 9 9 5
25 21 20 20 16 17 20 21 14 14 14 14 12 11 11 10 10 12 11 11 15 13 10 7 6 9 14 6 4 12 10 11 10 9 9 8 8 7 8 8 8 13 8
25 23 20 21 19 17 13 13 14 13 12 12 12 12 11 9 8 7 7 8 7 9 6 5 3 8 5 3 10 12 12 10 10 9 8 7 7 7 7 7 6 8 8
23 21 20 17 18 18 15 11 12 12 9 11 12 11 10 10 8 12 12 9 9 8 8 7 8 8 9 11 12 12 11 11 10 9 9 9 8 8 7 6 7 8 9
24 18 16 16 15 16 16 19 28 25 25 27 22 15 13 15 13 14 16 14 10 10 4 9 9 10 12 13 11 12 11 12 10 9 9 8 8 8 9 9 9 9 9
24 22 17 17 17 17 17 17 15 19 31 27 26 24 20 14 15 17 10 4 8 3 10 10 11 12 12 12 11 10 9 9 10 9 8 8 8 7 8 9 9 8 7
23 29 18 17 16 16 15 15 13 14 16 14 17 13 15 18 14 5 6 6 8 10 10 11 11 11 11 11 10 9 9 9 9 9 8 8 8 7 7 9 9 8 8
21 18 17 16 15 16 14 15 15 16 15 14 13 14 16 12 8 6 7 9 10 11 11 11 11 10 10 9 8 7 8 8 6 6 5 3 3 3 4 3 6 7 8
19 29 22 17 14 15 14 14 14 14 14 13 12 11 9 6 9 9 9 10 11 11 11 11 10 10 10 10 8 8 9 9 11 11 11 11 11 11 10 9 9 8 9
16 16 22 16 14 14 14 15 14 14 13 13 12 10 8 10 10 10 10 10 10 11 10 10 10 10 10 10 10 11 11 11 11 12 11 11 11 11 11 10 10 10 10
16 16 15 15 15 16 16 16 13 14 15 14 13 8 4 10 10 10 10 10 11 10 10 10 9 10 10 11 12 12 12 12 12 12 12 12 11 11 11 10 11 11 11
17 18 18 16 16 18 17 15 14 15 15 13 12 10 11 10 10 10 10 10 10 11 10 11 11 11 11 11 12 13 13 12 11 12 11 11 11 11 11 11 12 11 11
19 20 19 17 16 16 15 15 15 14 14 13 12 11 11 10 9 11 11 11 11 11 10 11 12 15 13 12 12 12 12 11 11 11 13 11 11 12 11 11 12 14 12
18 18 18 17 16 15 16 15 15 14 13 12 12 11 11 10 10 11 11 10 11 11 13 11 10 14 17 19 18 18 14 14 14 13 11 13 14 14 13 11 12 12 15
17 18 16 15 15 14 14 14 14 14 13 12 12 11 10 11 10 10 11 11 10 11 12 10 12 16 17 16 17 14 14 15 15 15 11 12 13 12 11 13 16 12 14
Wind_Direction
210 212 214 192 163 140 139 144 135 146 138 136 141 133 130 118 113 104 97 93 86 83 70 55 42 20 9 357 342 348 335 337 319 333 327 340 338 344 345 345 353 343 338
209 208 211 184 159 153 140 133 129 138 141 131 134 133 127 125 117 98 93 89 85 78 65 48 32 13 9 4 335 359 345 328 324 327 332 333 348 354 353 350 350 332 338
201 190 182 200 157 146 115 128 147 141 137 140 132 128 126 115 109 102 102 95 82 70 55 46 31 23 14 4 353 353 348 332 327 323 330 344 347 6 351 347 337 340 339
202 170 180 158 159 161 138 151 141 136 137 132 130 117 116 114 107 105 102 97 87 72 63 49 39 30 19 8 358 355 359 332 344 337 338 351 353 1 351 335 334 339 346
200 169 151 96 128 142 127 129 129 129 125 122 114 108 107 105 96 104 98 94 88 76 62 59 52 33 37 26 354 360 355 352 346 343 347 350 354 350 345 330 329 338 0
192 167 132 113 113 130 119 116 112 113 114 110 100 100 90 88 56 51 88 85 73 65 59 48 46 36 16 57 2 305 12 3 357 342 354 351 353 349 334 326 330 344 354
182 129 133 124 110 127 117 117 113 109 100 93 95 98 89 98 89 66 49 80 74 66 54 38 33 38 16 353 15 336 193 169 28 331 353 357 345 347 324 326 339 338 338
132 127 127 125 106 141 118 115 110 105 104 107 106 99 99 95 87 75 62 76 77 71 53 39 38 32 17 359 360 360 4 18 13 360 354 1 11 344 329 324 331 345 18
132 129 131 129 122 120 126 119 111 104 103 102 102 102 105 94 66 57 91 93 87 79 79 46 29 34 13 358 2 2 358 12 60 228 264 317 354 349 340 345 5 359 1
134 128 125 122 124 134 121 115 105 103 102 100 98 94 91 86 52 48 74 86 85 99 76 85 53 32 11 5 6 1 357 1 1 21 16 35 13 360 348 9 4 9 6
126 123 119 113 124 123 116 114 106 105 105 103 98 92 83 74 61 48 21 85 83 75 59 57 45 8 8 9 340 8 338 315 12 43 17 21 2 2 352 5 6 21 26
119 117 116 119 117 124 117 108 105 109 105 106 105 94 83 75 63 57 47 34 32 70 53 46 45 353 350 314 341 312 321 314 34 38 19 11 358 353 350 341 345 354 19
114 113 109 110 123 122 115 113 120 115 117 113 109 107 99 97 91 81 65 61 47 66 58 44 341 298 282 241 282 313 6 26 25 25 16 6 357 345 342 343 358 348 66
114 115 114 111 113 106 105 110 116 112 112 114 115 100 97 88 82 75 81 91 123 67 128 74 342 276 259 312 32 35 31 27 22 17 14 359 355 0 351 353 357 354 29
113 111 112 112 112 101 79 81 89 73 88 114 98 99 101 88 63 60 48 58 57 44 318 51 44 38 33 37 38 28 28 24 20 11 11 6 360 1 353 353 360 357 32
114 110 111 112 109 97 97 87 61 74 68 63 67 86 77 87 87 75 56 35 353 310 76 54 46 39 40 36 24 22 19 18 12 7 10 6 2 2 356 2 15 17 18
119 115 114 112 113 111 105 103 104 75 71 69 71 70 70 87 70 60 58 57 354 339 61 55 47 43 42 33 25 21 18 8 4 10 6 359 4 0 2 8 11 18 31
108 113 113 110 112 108 108 113 108 99 99 89 62 81 80 66 58 38 277 285 86 66 59 53 48 44 49 32 26 22 18 12 8 5 3 7 7 5 4 10 14 6 0
109 107 107 104 104 106 115 106 101 101 101 105 109 89 78 83 75 17 14 74 72 64 58 54 48 46 51 46 23 18 18 13 355 354 353 7 17 10 345 7 14 358 2
99 108 105 106 114 108 104 106 109 107 109 107 99 97 110 142 87 78 71 67 65 61 57 54 45 43 48 40 26 19 21 26 24 16 19 17 22 25 31 20 22 17 28
113 108 111 107 112 110 104 104 108 108 105 92 81 62 11 95 89 84 75 65 64 58 55 51 46 41 36 38 25 24 22 25 25 13 14 20 21 26 29 30 41 24 29
110 111 109 111 109 107 109 106 110 106 100 101 105 104 302 92 89 83 79 74 71 65 55 49 48 39 37 29 25 21 20 18 20 11 12 22 15 30 34 33 36 41 26
113 111 106 101 106 113 105 113 110 106 112 118 118 112 97 92 89 88 82 78 73 66 60 51 44 42 35 34 29 27 18 8 5 11 15 16 26 17 32 35 31 29 39
102 110 117 116 107 113 118 111 107 107 113 112 109 102 97 94 95 89 85 81 78 70 62 60 52 46 39 35 30 33 27 8 9 3 21 22 26 21 27 34 36 34 31
118 112 108 118 117 112 116 117 115 115 114 112 110 106 108 106 97 89 86 81 78 75 68 58 48 50 47 40 33 29 11 352 358 334 31 31 26 32 28 30 33 35 35
115 115 113 118 120 120 119 119 120 118 117 114 110 110 110 102 98 95 87 83 82 76 72 63 57 49 46 39 26 10 359 355 358 342 27 34 36 29 31 31 31 31 33